OPS 4682 DEB, 51499

Orbit data source: Space-Track

OPS 4682 DEB, 51499 is space debris in LEO originally from a launch on Sat, 03 Apr 1965 UTC launched from the Air Force Western Test Range (AFWTR). Debris objects in space refer to the collection of defunct objects orbiting the Earth. Examples of debris include non-operational satellites, rocket bodies, and fragments generated from explosions, collisions, or faulty payload assembly.

Loading next visibility...
Identifier
51499, 1965-027GK
Orbit
LEO
Country
Flag of USUS
Related business
Manufacturer
Unknown
Mission
Spacecraft
Bus & Motor
Unknown
Mass
Unknown
Launch date (UTC)
1965-04-03 (61 years ago)
Launch vehicle
Unknown
Launch site
Air Force Western Test Range (AFWTR)
Object type
Payload
Rocket body
Debris
Shape & HBR
Unknown shape, 0.1 m
Radar Cross Section
Medium (>0.1 m² and <1 m²)

Expand to show TLE details & history
Last TLE update: 1 day ago

TLE from 1 day ago
0 OPS 4682 DEB
1 51499U 65027GK  26262.27837183  .00000190  00000-0  66638-3 0  9997
2 51499  90.2593  10.2329 0026516  26.2080 334.0373 12.93339653536150
Epoch: 2026-09-19T06:40Z
TLE epoch observation values (Epoch: 2026-09-19T06:40:51.326Z)
Latitude
-0.00009°
Longitude
-88.17016°
Altitude
1,272.898 km
Speed
7.228 km/s
True Right ascension
00h 40m 55s
True Declination
0° 00' 00"
Sunlit
Object was in full shadow at epoch
Visualization orbit readout
Latitude
Unknown
Longitude
Unknown
Altitude
Unknown
Speed
Unknown
Apparent Right ascension
Unknown
Apparent Declination
Unknown
Sunlit
N/A
Visualization observer readout
Local Sidereal Time
07:58:24
Azimuth
Unknown
Elevation
Unknown
Doppler factor
Unknown
Orbital elements
Apogee altitude
1,305.752 km
Perigee altitude
1,265.11 km
Semi-major axis
7,663.568 km
Eccentricity
0.00265
Inclination
90.2593°
RAAN
10.2329°
Arg. of periapsis
26.208°
True anomaly
333.90388°
Mean anomaly
334.0373°
Eccentric anomaly
333.97063°
Mean motion
3.23517 °/min
Orbital period
111.28 mins
BSTAR
0.00066638
Loading maneuver chart data...
Computing Atmospheric mass density...
Loading historical data...
Loading historical data...
Loading historical data...
Loading historical data...
Loading historical data...
Loading historical data...
Loading historical data...

Documentation

Showing up to 5 results
|